| time (UTC) | temp F | wind direction | speed MPH | gust MPH | rain 1hr in | rain 24hr in | rain mn in | humidity % | barometer mb |
| 20260507094509 | 35 | 78 | 0.0 | 1.0 | 0.00 | 0.00 | 0.00 | 79 | 1011.7 |
| 20260507093009 | 36 | 78 | 0.0 | 1.0 | 0.00 | 0.00 | 0.00 | 76 | 1011.6 |
| 20260507091511 | 36 | 78 | 0.0 | 0.0 | 0.00 | 0.00 | 0.00 | 76 | 1011.7 |
| 20260507090009 | 37 | 78 | 0.0 | 0.0 | 0.00 | 0.00 | 0.00 | 75 | 1011.9 |
| 20260507084517 | 37 | 78 | 0.0 | 1.0 | 0.00 | 0.00 | 0.00 | 75 | 1011.8 |
| 20260507083010 | 37 | 78 | 0.0 | 0.0 | 0.00 | 0.00 | 0.00 | 74 | 1011.8 |
| 20260507081513 | 38 | 78 | 0.0 | 2.0 | 0.00 | 0.00 | 0.00 | 73 | 1011.8 |
| 20260507080009 | 38 | 78 | 0.0 | 2.0 | 0.00 | 0.00 | 0.00 | 71 | 1011.8 |
| 20260507074523 | 39 | 78 | 1.0 | 3.0 | 0.00 | 0.00 | 0.00 | 72 | 1011.8 |
| 20260507073010 | 40 | 78 | 2.0 | 5.0 | 0.00 | 0.00 | 0.00 | 71 | 1011.9 |
| 20260507071510 | 40 | 78 | 1.0 | 4.0 | 0.00 | 0.00 | 0.00 | 71 | 1011.9 |
| 20260507070013 | 40 | 78 | 2.0 | 4.0 | 0.00 | 0.00 | 0.00 | 70 | 1012.2 |
| 20260507064510 | 41 | 61 | 2.0 | 6.0 | 0.00 | 0.00 | 0.00 | 73 | 1012.5 |
| 20260507063010 | 41 | 360 | 1.0 | 4.0 | 0.00 | 0.00 | 0.00 | 74 | 1012.5 |
| 20260507061512 | 42 | 360 | 2.0 | 6.0 | 0.00 | 0.00 | 0.00 | 74 | 1012.4 |
| 20260507060010 | 42 | 12 | 2.0 | 6.0 | 0.00 | 0.00 | 0.00 | 75 | 1012.5 |
| 20260507054510 | 43 | 27 | 2.0 | 9.0 | 0.00 | 0.00 | 0.00 | 75 | 1012.5 |
| 20260507053010 | 42 | 17 | 2.0 | 6.0 | 0.00 | 0.00 | 0.00 | 76 | 1012.5 |
| 20260507051510 | 42 | 347 | 2.0 | 5.0 | 0.00 | 0.00 | 0.00 | 76 | 1012.6 |
| 20260507050010 | 42 | 351 | 2.0 | 8.0 | 0.00 | 0.00 | 0.00 | 80 | 1012.7 |
| 20260507044511 | 42 | 319 | 1.0 | 7.0 | 0.00 | 0.00 | 0.00 | 82 | 1012.6 |
| 20260507043010 | 41 | 340 | 1.0 | 5.0 | 0.00 | 0.00 | 0.00 | 85 | 1012.7 |
| 20260507041512 | 41 | 311 | 2.0 | 5.0 | 0.00 | 0.00 | 0.00 | 85 | 1012.5 |
| 20260507040010 | 42 | 330 | 0.0 | 5.0 | 0.00 | 0.00 | 0.00 | 83 | 1012.5 |
| 20260507034510 | 42 | 330 | 0.0 | 0.0 | 0.00 | 0.00 | 0.00 | 81 | 1012.4 |
| 20260507033011 | 42 | 330 | 0.0 | 0.0 | 0.00 | 0.00 | 0.00 | 81 | 1012.4 |
| 20260507031512 | 41 | 330 | 0.0 | 0.0 | 0.00 | 0.00 | 0.00 | 79 | 1012.3 |
| 20260507030017 | 41 | 330 | 0.0 | 0.0 | 0.00 | 0.00 | 0.00 | 81 | 1012.5 |
| 20260507024518 | 41 | 330 | 0.0 | 0.0 | 0.00 | 0.00 | 0.00 | 78 | 1012.3 |
| 20260507023011 | 42 | 330 | 0.0 | 0.0 | 0.00 | 0.00 | 0.00 | 78 | 1012.3 |
| 20260507021511 | 42 | 330 | 0.0 | 0.0 | 0.00 | 0.00 | 0.00 | 79 | 1012.2 |
| 20260507020012 | 42 | 330 | 0.0 | 0.0 | 0.00 | 0.00 | 0.00 | 78 | 1012.2 |
| 20260507014517 | 42 | 330 | 0.0 | 0.0 | 0.00 | 0.00 | 0.00 | 78 | 1012.4 |
| 20260507013011 | 42 | 330 | 0.0 | 0.0 | 0.00 | 0.00 | 0.00 | 78 | 1012.3 |
| 20260507011525 | 42 | 330 | 0.0 | 0.0 | 0.00 | 0.00 | 0.00 | 78 | 1012.3 |
| 20260507010017 | 42 | 330 | 0.0 | 1.0 | 0.00 | 0.00 | 0.00 | 77 | 1012.4 |
| 20260507004511 | 42 | 330 | 0.0 | 0.0 | 0.00 | 0.00 | 0.00 | 78 | 1012.4 |
| 20260507003016 | 42 | 330 | 0.0 | 0.0 | 0.00 | 0.00 | 0.00 | 77 | 1012.4 |
| 20260507001511 | 42 | 330 | 0.0 | 2.0 | 0.00 | 0.00 | 0.00 | 76 | 1012.3 |
| 20260507000011 | 42 | 330 | 0.0 | 0.0 | 0.00 | 0.00 | 0.00 | 75 | 1012.1 |
| 20260506234512 | 42 | 330 | 0.0 | 2.0 | 0.00 | 0.01 | 0.00 | 76 | 1012.0 |
| 20260506233012 | 42 | 330 | 0.0 | 2.0 | 0.00 | 0.01 | 0.00 | 74 | 1012.2 |
| 20260506231512 | 43 | 330 | 0.0 | 3.0 | 0.00 | 0.01 | 0.00 | 72 | 1012.2 |
| 20260506230015 | 43 | 330 | 0.0 | 3.0 | 0.00 | 0.01 | 0.00 | 70 | 1012.3 |
| 20260506224514 | 44 | 330 | 2.0 | 5.0 | 0.00 | 0.01 | 0.00 | 69 | 1012.5 |
| 20260506223012 | 44 | 314 | 2.0 | 8.0 | 0.00 | 0.01 | 0.00 | 64 | 1012.4 |
| 20260506221512 | 45 | 359 | 1.0 | 7.0 | 0.00 | 0.01 | 0.00 | 67 | 1012.4 |
| 20260506220012 | 45 | 360 | 0.0 | 5.0 | 0.00 | 0.01 | 0.00 | 65 | 1012.5 |
| 20260506214518 | 44 | 345 | 1.0 | 8.0 | 0.00 | 0.01 | 0.00 | 64 | 1012.3 |
| 20260506213012 | 45 | 29 | 5.0 | 9.0 | 0.00 | 0.01 | 0.00 | 66 | 1012.4 |
| 20260506211512 | 44 | 330 | 3.0 | 9.0 | 0.00 | 0.01 | 0.00 | 65 | 1012.0 |
| 20260506210014 | 46 | 358 | 1.0 | 8.0 | 0.00 | 0.01 | 0.00 | 69 | 1012.3 |
| 20260506204514 | 43 | 26 | 4.0 | 8.0 | 0.00 | 0.01 | 0.00 | 68 | 1012.2 |
| 20260506203014 | 44 | 2 | 3.0 | 8.0 | 0.00 | 0.01 | 0.00 | 68 | 1012.2 |
| 20260506201518 | 44 | 56 | 2.0 | 6.0 | 0.00 | 0.01 | 0.00 | 69 | 1012.3 |
| 20260506200015 | 44 | 22 | 2.0 | 6.0 | 0.00 | 0.01 | 0.00 | 68 | 1012.5 |
| 20260506194513 | 43 | 4 | 3.0 | 10.0 | 0.00 | 0.01 | 0.00 | 71 | 1012.6 |
| 20260506193013 | 43 | 358 | 1.0 | 6.0 | 0.00 | 0.01 | 0.00 | 74 | 1012.5 |
| 20260506191513 | 40 | 359 | 2.0 | 8.0 | 0.00 | 0.01 | 0.00 | 72 | 1012.6 |
| 20260506190012 | 41 | 3 | 4.0 | 9.0 | 0.00 | 0.01 | 0.00 | 71 | 1012.8 |
| 20260506184521 | 42 | 323 | 4.0 | 8.0 | 0.00 | 0.01 | 0.00 | 72 | 1013.0 |
| 20260506183014 | 42 | 1 | 3.0 | 10.0 | 0.00 | 0.01 | 0.00 | 72 | 1013.3 |
| 20260506181513 | 40 | 314 | 4.0 | 11.0 | 0.00 | 0.01 | 0.00 | 74 | 1013.2 |
| 20260506180013 | 40 | 330 | 4.0 | 9.0 | 0.00 | 0.01 | 0.00 | 75 | 1013.0 |
| 20260506174513 | 40 | 351 | 3.0 | 9.0 | 0.00 | 0.01 | 0.00 | 74 | 1012.8 |
| 20260506173013 | 40 | 290 | 4.0 | 10.0 | 0.00 | 0.01 | 0.00 | 74 | 1013.0 |
| 20260506171513 | 41 | 315 | 3.0 | 10.0 | 0.00 | 0.01 | 0.00 | 74 | 1013.0 |
| 20260506170014 | 42 | 323 | 3.0 | 9.0 | 0.00 | 0.01 | 0.00 | 73 | 1013.0 |
| 20260506164514 | 43 | 281 | 3.0 | 9.0 | 0.00 | 0.01 | 0.00 | 73 | 1012.8 |
| 20260506163014 | 42 | 296 | 2.0 | 11.0 | 0.00 | 0.01 | 0.00 | 75 | 1012.8 |
| 20260506161514 | 42 | 328 | 3.0 | 9.0 | 0.00 | 0.01 | 0.00 | 76 | 1012.7 |
| 20260506160015 | 41 | 311 | 4.0 | 14.0 | 0.00 | 0.01 | 0.00 | 77 | 1012.6 |
| 20260506154513 | 41 | 241 | 2.0 | 11.0 | 0.00 | 0.01 | 0.00 | 78 | 1012.5 |
| 20260506153013 | 41 | 356 | 4.0 | 11.0 | 0.00 | 0.01 | 0.00 | 77 | 1012.4 |
| 20260506151514 | 42 | 297 | 4.0 | 12.0 | 0.00 | 0.01 | 0.00 | 77 | 1011.9 |
| 20260506150014 | 42 | 315 | 5.0 | 10.0 | 0.00 | 0.01 | 0.00 | 75 | 1011.8 |
| 20260506144527 | 42 | 288 | 3.0 | 12.0 | 0.00 | 0.01 | 0.00 | 76 | 1011.4 |
| 20260506143014 | 42 | 311 | 6.0 | 17.0 | 0.00 | 0.01 | 0.00 | 76 | 1011.1 |
| 20260506141514 | 42 | 342 | 5.0 | 15.0 | 0.00 | 0.01 | 0.00 | 77 | 1010.7 |
| 20260506140014 | 42 | 290 | 6.0 | 15.0 | 0.00 | 0.01 | 0.00 | 78 | 1010.6 |
| 20260506134514 | 41 | 309 | 5.0 | 13.0 | 0.00 | 0.01 | 0.00 | 78 | 1010.4 |
| 20260506133014 | 41 | 307 | 4.0 | 16.0 | 0.00 | 0.01 | 0.00 | 79 | 1010.3 |
| 20260506131514 | 41 | 305 | 4.0 | 13.0 | 0.00 | 0.01 | 0.00 | 79 | 1010.2 |
| 20260506130014 | 40 | 300 | 5.0 | 12.0 | 0.00 | 0.01 | 0.00 | 78 | 1010.1 |
| 20260506124514 | 40 | 296 | 4.0 | 16.0 | 0.00 | 0.01 | 0.00 | 80 | 1009.9 |
| 20260506123019 | 40 | 290 | 4.0 | 14.0 | 0.00 | 0.01 | 0.00 | 82 | 1009.7 |
| 20260506121515 | 39 | 283 | 6.0 | 15.0 | 0.00 | 0.01 | 0.00 | 82 | 1009.6 |
| 20260506120024 | 40 | 359 | 5.0 | 15.0 | 0.00 | 0.01 | 0.00 | 84 | 1009.5 |
| 20260506114519 | 40 | 328 | 4.0 | 11.0 | 0.00 | 0.01 | 0.00 | 86 | 1009.1 |
| 20260506113015 | 40 | 348 | 2.0 | 11.0 | 0.00 | 0.01 | 0.00 | 87 | 1008.8 |
| 20260506111514 | 40 | 329 | 3.0 | 11.0 | 0.00 | 0.01 | 0.00 | 88 | 1008.6 |
| 20260506110015 | 39 | 360 | 5.0 | 11.0 | 0.00 | 0.01 | 0.00 | 88 | 1008.1 |
| 20260506104523 | 39 | 307 | 5.0 | 11.0 | 0.00 | 0.01 | 0.00 | 88 | 1007.5 |
| 20260506103016 | 39 | 6 | 3.0 | 10.0 | 0.00 | 0.01 | 0.00 | 88 | 1007.3 |
| 20260506101515 | 39 | 317 | 4.0 | 11.0 | 0.00 | 0.01 | 0.00 | 88 | 1007.5 |
| 20260506100019 | 39 | 321 | 4.0 | 10.0 | 0.00 | 0.01 | 0.00 | 88 | 1007.3 |